sat.trackr.live / text

‹ back to catalog

STARLINK-36782

NORAD 67805 · 2026-032J

PAYLOAD ACTIVE UNKNOWN

§ Identity

Operator
Country
US
Launch date
2026-02-15
Launch site
AFWTR
Launch vehicle
Mass (kg)
RCS (m²)

Purposes: comms

External: N2YO · Heavens-Above · Gunter

§ Orbital elements

Epoch: 2026-09-19T19:48:50.083488Z

Period
93.91 min
Inclination
97.2859°
Eccentricity
0.0002389
Mean motion
15.33418826 rev/d
Perigee alt
464.0 km
Apogee alt
467.3 km
Semi-major
6,843.8 km
B*
6.2075e-4
RAAN
89.2699°
Arg perigee
104.9173°
Mean anomaly
255.2335°
Rev number
3,471

§ Raw data

STARLINK-367821 67805U 26032J   26262.82557967  .00020003  00000+0  62075-3 0  99932 67805  97.2859  89.2699 0002389 104.9173 255.2335 15.33418826 34719

JSON: /api/v1/satellites/67805 · /tle

For live sub-satellite position, see the globe view (requires WebGL).

§ Visibility from observer

Set your observer location to see the next 7 days of passes ≥ 10°. The values pass through the URL so the page stays shareable.

No JS? Fill the form by hand. The geolocation button needs JavaScript.